Year,Month,Day,Hour,Minute,Value (Times are PST for temperature in C)
2021,07,01,00,00,19.90
2021,07,01,00,01,19.90
2021,07,01,00,02,19.90
2021,07,01,00,03,19.80
2021,07,01,00,04,19.90
2021,07,01,00,05,19.80
2021,07,01,00,06,19.90
2021,07,01,00,07,19.90
2021,07,01,00,08,19.80
2021,07,01,00,09,19.80
2021,07,01,00,10,19.80
2021,07,01,00,11,19.80
2021,07,01,00,12,19.80
2021,07,01,00,13,19.80
2021,07,01,00,14,19.80
2021,07,01,00,15,19.80
2021,07,01,00,16,19.80
2021,07,01,00,17,19.80
2021,07,01,00,18,19.80
2021,07,01,00,19,19.80
2021,07,01,00,20,19.80
2021,07,01,00,21,19.80
2021,07,01,00,22,19.80
2021,07,01,00,23,19.70
2021,07,01,00,24,19.70
2021,07,01,00,25,19.70
2021,07,01,00,26,19.70
2021,07,01,00,27,19.70
2021,07,01,00,28,19.70
2021,07,01,00,29,19.70
2021,07,01,00,30,19.70
2021,07,01,00,31,19.70
2021,07,01,00,32,19.70
2021,07,01,00,33,19.70
2021,07,01,00,34,19.70
2021,07,01,00,35,19.70
2021,07,01,00,36,19.70
2021,07,01,00,37,19.70
2021,07,01,00,38,19.70
2021,07,01,00,39,19.70
2021,07,01,00,40,19.70
2021,07,01,00,41,19.70
2021,07,01,00,42,19.60
2021,07,01,00,43,19.60
2021,07,01,00,44,19.60
2021,07,01,00,45,19.60
2021,07,01,00,46,19.60
2021,07,01,00,47,19.60
2021,07,01,00,48,19.60
2021,07,01,00,49,19.60
2021,07,01,00,50,19.60
2021,07,01,00,51,19.60
2021,07,01,00,52,19.60
2021,07,01,00,53,19.60
2021,07,01,00,54,19.60
2021,07,01,00,55,19.60
2021,07,01,00,56,19.60
2021,07,01,00,57,19.60
2021,07,01,00,58,19.60
2021,07,01,00,59,19.60
2021,07,01,01,00,19.60
2021,07,01,01,01,19.60
2021,07,01,01,02,19.60
2021,07,01,01,03,19.60
2021,07,01,01,04,19.60
2021,07,01,01,05,19.60
2021,07,01,01,06,19.60
2021,07,01,01,07,19.60
2021,07,01,01,08,19.60
2021,07,01,01,09,19.60
2021,07,01,01,10,19.60
2021,07,01,01,11,19.60
2021,07,01,01,12,19.60
2021,07,01,01,13,19.60
2021,07,01,01,14,19.60
2021,07,01,01,15,19.60
2021,07,01,01,16,19.60
2021,07,01,01,17,19.50
2021,07,01,01,18,19.50
2021,07,01,01,19,19.50
2021,07,01,01,20,19.50
2021,07,01,01,21,19.50
2021,07,01,01,22,19.50
2021,07,01,01,23,19.50
2021,07,01,01,24,19.50
2021,07,01,01,25,19.50
2021,07,01,01,26,19.50
2021,07,01,01,27,19.50
2021,07,01,01,28,19.50
2021,07,01,01,29,19.20
2021,07,01,01,30,18.90
2021,07,01,01,31,18.50
2021,07,01,01,32,18.10
2021,07,01,01,33,17.80
2021,07,01,01,34,17.50
2021,07,01,01,35,17.10
2021,07,01,01,36,16.80
2021,07,01,01,37,16.60
2021,07,01,01,38,16.40
2021,07,01,01,39,16.30
2021,07,01,01,40,16.20
2021,07,01,01,41,16.20
2021,07,01,01,42,16.20
2021,07,01,01,43,16.20
2021,07,01,01,44,16.20
2021,07,01,01,45,16.00
2021,07,01,01,46,15.80
2021,07,01,01,47,15.70
2021,07,01,01,48,15.60
2021,07,01,01,49,15.40
2021,07,01,01,50,15.40
2021,07,01,01,51,15.40
2021,07,01,01,52,15.30
2021,07,01,01,53,15.40
2021,07,01,01,54,15.40
2021,07,01,01,55,15.50
2021,07,01,01,56,15.60
2021,07,01,01,57,15.70
2021,07,01,01,58,15.70
2021,07,01,01,59,15.90
2021,07,01,02,00,16.00
2021,07,01,02,01,16.00
2021,07,01,02,02,16.10
2021,07,01,02,03,16.20
2021,07,01,02,04,16.20
2021,07,01,02,05,16.10
2021,07,01,02,06,16.10
2021,07,01,02,07,16.00
2021,07,01,02,08,16.00
2021,07,01,02,09,15.80
2021,07,01,02,10,15.60
2021,07,01,02,11,15.50
2021,07,01,02,12,15.40
2021,07,01,02,13,15.40
2021,07,01,02,14,15.40
2021,07,01,02,15,15.50
2021,07,01,02,16,15.50
2021,07,01,02,17,15.50
2021,07,01,02,18,15.50
2021,07,01,02,19,15.50
2021,07,01,02,20,15.40
2021,07,01,02,21,15.40
2021,07,01,02,22,15.40
2021,07,01,02,23,15.40
2021,07,01,02,24,15.40
2021,07,01,02,25,15.40
2021,07,01,02,26,15.50
2021,07,01,02,27,15.40
2021,07,01,02,28,15.40
2021,07,01,02,29,15.40
2021,07,01,02,30,15.40
2021,07,01,02,31,15.40
2021,07,01,02,32,15.40
2021,07,01,02,33,15.40
2021,07,01,02,34,15.40
2021,07,01,02,35,15.30
2021,07,01,02,36,15.30
2021,07,01,02,37,15.30
2021,07,01,02,38,15.30
2021,07,01,02,39,15.30
2021,07,01,02,40,15.30
2021,07,01,02,41,15.30
2021,07,01,02,42,15.30
2021,07,01,02,43,15.30
2021,07,01,02,44,15.30
2021,07,01,02,45,15.30
2021,07,01,02,46,15.30
2021,07,01,02,47,15.20
2021,07,01,02,48,15.30
2021,07,01,02,49,15.20
2021,07,01,02,50,15.20
2021,07,01,02,51,15.20
2021,07,01,02,52,15.20
2021,07,01,02,53,15.10
2021,07,01,02,54,15.10
2021,07,01,02,55,15.10
2021,07,01,02,56,15.00
2021,07,01,02,57,15.00
2021,07,01,02,58,15.00
2021,07,01,02,59,14.90
2021,07,01,03,00,14.90
2021,07,01,03,01,14.80
2021,07,01,03,02,14.80
2021,07,01,03,03,14.70
2021,07,01,03,04,14.60
2021,07,01,03,05,14.50
2021,07,01,03,06,14.50
2021,07,01,03,07,14.50
2021,07,01,03,08,14.50
2021,07,01,03,09,14.40
2021,07,01,03,10,14.40
2021,07,01,03,11,14.40
2021,07,01,03,12,14.40
2021,07,01,03,13,14.30
2021,07,01,03,14,14.30
2021,07,01,03,15,14.30
2021,07,01,03,16,14.20
2021,07,01,03,17,14.20
2021,07,01,03,18,14.20
2021,07,01,03,19,14.20
2021,07,01,03,20,14.20
2021,07,01,03,21,14.10
2021,07,01,03,22,14.20
2021,07,01,03,23,14.20
2021,07,01,03,24,14.20
2021,07,01,03,25,14.30
2021,07,01,03,26,14.30
2021,07,01,03,27,14.30
2021,07,01,03,28,14.30
2021,07,01,03,29,14.30
2021,07,01,03,30,14.30
2021,07,01,03,31,14.30
2021,07,01,03,32,14.30
2021,07,01,03,33,14.30
2021,07,01,03,34,14.30
2021,07,01,03,35,14.30
2021,07,01,03,36,14.30
2021,07,01,03,37,14.40
2021,07,01,03,38,14.40
2021,07,01,03,39,14.40
2021,07,01,03,40,14.40
2021,07,01,03,41,14.40
2021,07,01,03,42,14.40
2021,07,01,03,43,14.40
2021,07,01,03,44,14.40
2021,07,01,03,45,14.40
2021,07,01,03,46,14.40
2021,07,01,03,47,14.50
2021,07,01,03,48,14.50
2021,07,01,03,49,14.50
2021,07,01,03,50,14.50
2021,07,01,03,51,14.50
2021,07,01,03,52,14.50
2021,07,01,03,53,14.50
2021,07,01,03,54,14.50
2021,07,01,03,55,14.50
2021,07,01,03,56,14.50
2021,07,01,03,57,14.40
2021,07,01,03,58,14.40
2021,07,01,03,59,14.40
2021,07,01,04,00,14.40
2021,07,01,04,01,14.30
2021,07,01,04,02,14.30
2021,07,01,04,03,14.30
2021,07,01,04,04,14.30
2021,07,01,04,05,14.30
2021,07,01,04,06,14.30
2021,07,01,04,07,14.20
2021,07,01,04,08,14.20
2021,07,01,04,09,14.20
2021,07,01,04,10,14.20
2021,07,01,04,11,14.30
2021,07,01,04,12,14.30
2021,07,01,04,13,14.30
2021,07,01,04,14,14.30
2021,07,01,04,15,14.30
2021,07,01,04,16,14.40
2021,07,01,04,17,14.40
2021,07,01,04,18,14.40
2021,07,01,04,19,14.40
2021,07,01,04,20,14.40
2021,07,01,04,21,14.40
2021,07,01,04,22,14.40
2021,07,01,04,23,14.40
2021,07,01,04,24,14.40
2021,07,01,04,25,14.40
2021,07,01,04,26,14.50
2021,07,01,04,27,14.50
2021,07,01,04,28,14.40
2021,07,01,04,29,14.30
2021,07,01,04,30,14.30
2021,07,01,04,31,14.30
2021,07,01,04,32,14.20
2021,07,01,04,33,14.20
2021,07,01,04,34,14.20
2021,07,01,04,35,14.20
2021,07,01,04,36,14.10
2021,07,01,04,37,14.10
2021,07,01,04,38,14.10
2021,07,01,04,39,14.10
2021,07,01,04,40,14.10
2021,07,01,04,41,14.20
2021,07,01,04,42,14.20
2021,07,01,04,43,14.20
2021,07,01,04,44,14.20
2021,07,01,04,45,14.20
2021,07,01,04,46,14.20
2021,07,01,04,47,14.10
2021,07,01,04,48,14.10
2021,07,01,04,49,14.10
2021,07,01,04,50,14.10
2021,07,01,04,51,14.00
2021,07,01,04,52,14.00
2021,07,01,04,53,14.10
2021,07,01,04,54,14.10
2021,07,01,04,55,14.20
2021,07,01,04,56,14.20
2021,07,01,04,57,14.20
2021,07,01,04,58,14.30
2021,07,01,04,59,14.30
2021,07,01,05,00,14.30
2021,07,01,05,01,14.40
2021,07,01,05,02,14.40
2021,07,01,05,03,14.40
2021,07,01,05,04,14.50
2021,07,01,05,05,14.50
2021,07,01,05,06,14.50
2021,07,01,05,07,14.60
2021,07,01,05,08,14.60
2021,07,01,05,09,14.60
2021,07,01,05,10,14.60
2021,07,01,05,11,14.60
2021,07,01,05,12,14.70
2021,07,01,05,13,14.70
2021,07,01,05,14,14.70
2021,07,01,05,15,14.70
2021,07,01,05,16,14.70
2021,07,01,05,17,14.70
2021,07,01,05,18,14.70
2021,07,01,05,19,14.70
2021,07,01,05,20,14.60
2021,07,01,05,21,14.60
2021,07,01,05,22,14.60
2021,07,01,05,23,14.60
2021,07,01,05,24,14.50
2021,07,01,05,25,14.50
2021,07,01,05,26,14.50
2021,07,01,05,27,14.40
2021,07,01,05,28,14.40
2021,07,01,05,29,14.40
2021,07,01,05,30,14.40
2021,07,01,05,31,14.40
2021,07,01,05,32,14.40
2021,07,01,05,33,14.40
2021,07,01,05,34,14.40
2021,07,01,05,35,14.40
2021,07,01,05,36,14.40
2021,07,01,05,37,14.40
2021,07,01,05,38,14.40
2021,07,01,05,39,14.40
2021,07,01,05,40,14.40
2021,07,01,05,41,14.40
2021,07,01,05,42,14.40
2021,07,01,05,43,14.40
2021,07,01,05,44,14.30
2021,07,01,05,45,14.20
2021,07,01,05,46,14.10
2021,07,01,05,47,14.00
2021,07,01,05,48,13.90
2021,07,01,05,49,13.80
2021,07,01,05,50,13.80
2021,07,01,05,51,13.80
2021,07,01,05,52,13.70
2021,07,01,05,53,13.70
2021,07,01,05,54,13.60
2021,07,01,05,55,13.60
2021,07,01,05,56,13.60
2021,07,01,05,57,13.60
2021,07,01,05,58,13.60
2021,07,01,05,59,13.60
2021,07,01,06,00,13.60
2021,07,01,06,01,13.60
2021,07,01,06,02,13.60
2021,07,01,06,03,13.50
2021,07,01,06,04,13.60
2021,07,01,06,05,13.60
2021,07,01,06,06,13.60
2021,07,01,06,07,13.60
2021,07,01,06,08,13.60
2021,07,01,06,09,13.60
2021,07,01,06,10,13.60
2021,07,01,06,11,13.60
2021,07,01,06,12,13.60
2021,07,01,06,13,13.60
2021,07,01,06,14,13.60
2021,07,01,06,15,13.60
2021,07,01,06,16,13.60
2021,07,01,06,17,13.50
2021,07,01,06,18,13.50
2021,07,01,06,19,13.50
2021,07,01,06,20,13.50
2021,07,01,06,21,13.50
2021,07,01,06,22,13.50
2021,07,01,06,23,13.50
2021,07,01,06,24,13.50
2021,07,01,06,25,13.50
2021,07,01,06,26,13.60
2021,07,01,06,27,13.60
2021,07,01,06,28,13.60
2021,07,01,06,29,13.70
2021,07,01,06,30,13.80
2021,07,01,06,31,13.80
2021,07,01,06,32,13.80
2021,07,01,06,33,13.90
2021,07,01,06,34,13.90
2021,07,01,06,35,13.90
2021,07,01,06,36,14.00
2021,07,01,06,37,14.00
2021,07,01,06,38,14.10
2021,07,01,06,39,14.10
2021,07,01,06,40,14.20
2021,07,01,06,41,14.20
2021,07,01,06,42,14.30
2021,07,01,06,43,14.30
2021,07,01,06,44,14.30
2021,07,01,06,45,14.30
2021,07,01,06,46,14.30
2021,07,01,06,47,14.30
2021,07,01,06,48,14.30
2021,07,01,06,49,14.30
2021,07,01,06,50,14.30
2021,07,01,06,51,14.30
2021,07,01,06,52,14.30
2021,07,01,06,53,14.30
2021,07,01,06,54,14.30
2021,07,01,06,55,14.30
2021,07,01,06,56,14.30
2021,07,01,06,57,14.30
2021,07,01,06,58,14.30
2021,07,01,06,59,14.30
2021,07,01,07,00,14.30
2021,07,01,07,01,14.30
2021,07,01,07,02,14.30
2021,07,01,07,03,14.30
2021,07,01,07,04,14.30
2021,07,01,07,05,14.30
2021,07,01,07,06,14.30
2021,07,01,07,07,14.30
2021,07,01,07,08,14.30
2021,07,01,07,09,14.30
2021,07,01,07,10,14.30
2021,07,01,07,11,14.30
2021,07,01,07,12,14.30
2021,07,01,07,13,14.20
2021,07,01,07,14,14.20
2021,07,01,07,15,14.20
2021,07,01,07,16,14.20
2021,07,01,07,17,14.20
2021,07,01,07,18,14.20
2021,07,01,07,19,14.20
2021,07,01,07,20,14.20
2021,07,01,07,21,14.20
2021,07,01,07,22,14.20
2021,07,01,07,23,14.20
2021,07,01,07,24,14.20
2021,07,01,07,25,14.20
2021,07,01,07,26,14.20
2021,07,01,07,27,14.20
2021,07,01,07,28,14.20
2021,07,01,07,29,14.20
2021,07,01,07,30,14.10
2021,07,01,07,31,14.10
2021,07,01,07,32,14.10
2021,07,01,07,33,14.10
2021,07,01,07,34,14.10
2021,07,01,07,35,14.10
2021,07,01,07,36,14.10
2021,07,01,07,37,14.10
2021,07,01,07,38,14.10
2021,07,01,07,39,14.10
2021,07,01,07,40,14.10
2021,07,01,07,41,14.10
2021,07,01,07,42,14.10
2021,07,01,07,43,14.20
2021,07,01,07,44,14.20
2021,07,01,07,45,14.20
2021,07,01,07,46,14.20
2021,07,01,07,47,14.20
2021,07,01,07,48,14.20
2021,07,01,07,49,14.30
2021,07,01,07,50,14.20
2021,07,01,07,51,14.20
2021,07,01,07,52,14.30
2021,07,01,07,53,14.30
2021,07,01,07,54,14.30
2021,07,01,07,55,14.30
2021,07,01,07,56,14.30
2021,07,01,07,57,14.30
2021,07,01,07,58,14.30
2021,07,01,07,59,14.30
2021,07,01,08,00,14.30
2021,07,01,08,01,14.30
2021,07,01,08,02,14.30
2021,07,01,08,03,14.30
2021,07,01,08,04,14.30
2021,07,01,08,05,14.30
2021,07,01,08,06,14.30
2021,07,01,08,07,14.30
2021,07,01,08,08,14.30
2021,07,01,08,09,14.30
2021,07,01,08,10,14.20
2021,07,01,08,11,14.20
2021,07,01,08,12,14.20
2021,07,01,08,13,14.20
2021,07,01,08,14,14.20
2021,07,01,08,15,14.20
2021,07,01,08,16,14.20
2021,07,01,08,17,14.20
2021,07,01,08,18,14.20
2021,07,01,08,19,14.20
2021,07,01,08,20,14.30
2021,07,01,08,21,14.30
2021,07,01,08,22,14.40
2021,07,01,08,23,14.40
2021,07,01,08,24,14.40
2021,07,01,08,25,14.40
2021,07,01,08,26,14.30
2021,07,01,08,27,14.30
2021,07,01,08,28,14.20
2021,07,01,08,29,14.20
2021,07,01,08,30,14.20
2021,07,01,08,31,14.10
2021,07,01,08,32,14.10
2021,07,01,08,33,14.10
2021,07,01,08,34,14.10
2021,07,01,08,35,14.10
2021,07,01,08,36,14.20
2021,07,01,08,37,14.20
2021,07,01,08,38,14.20
2021,07,01,08,39,14.20
2021,07,01,08,40,14.20
2021,07,01,08,41,14.30
2021,07,01,08,42,14.30
2021,07,01,08,43,14.30
2021,07,01,08,44,14.30
2021,07,01,08,45,14.30
2021,07,01,08,46,14.20
2021,07,01,08,47,14.20
2021,07,01,08,48,14.20
2021,07,01,08,49,14.20
2021,07,01,08,50,14.10
2021,07,01,08,51,14.10
2021,07,01,08,52,14.10
2021,07,01,08,53,14.10
2021,07,01,08,54,14.10
2021,07,01,08,55,14.10
2021,07,01,08,56,14.00
2021,07,01,08,57,14.00
2021,07,01,08,58,14.00
2021,07,01,08,59,14.00
2021,07,01,09,00,14.00
2021,07,01,09,01,14.00
2021,07,01,09,02,14.00
2021,07,01,09,03,14.00
2021,07,01,09,04,14.00
2021,07,01,09,05,14.00
2021,07,01,09,06,14.00
2021,07,01,09,07,14.00
2021,07,01,09,08,14.00
2021,07,01,09,09,14.00
2021,07,01,09,10,14.00
2021,07,01,09,11,14.00
2021,07,01,09,12,14.00
2021,07,01,09,13,14.00
2021,07,01,09,14,14.00
2021,07,01,09,15,14.00
2021,07,01,09,16,14.00
2021,07,01,09,17,14.00
2021,07,01,09,18,14.00
2021,07,01,09,19,14.00
2021,07,01,09,20,14.00
2021,07,01,09,21,14.00
2021,07,01,09,22,14.00
2021,07,01,09,23,14.00
2021,07,01,09,24,14.00
2021,07,01,09,25,14.00
2021,07,01,09,26,13.90
2021,07,01,09,27,13.90
2021,07,01,09,28,13.90
2021,07,01,09,29,13.90
2021,07,01,09,30,13.90
2021,07,01,09,31,13.90
2021,07,01,09,32,13.80
2021,07,01,09,33,13.90
2021,07,01,09,34,13.90
2021,07,01,09,35,13.90
2021,07,01,09,36,13.90
2021,07,01,09,37,13.90
2021,07,01,09,38,14.00
2021,07,01,09,39,14.00
2021,07,01,09,40,14.00
2021,07,01,09,41,14.10
2021,07,01,09,42,14.10
2021,07,01,09,43,14.10
2021,07,01,09,44,14.10
2021,07,01,09,45,14.10
2021,07,01,09,46,14.10
2021,07,01,09,47,14.10
2021,07,01,09,48,14.10
2021,07,01,09,49,14.10
2021,07,01,09,50,14.10
2021,07,01,09,51,14.10
2021,07,01,09,52,14.10
2021,07,01,09,53,14.10
2021,07,01,09,54,14.10
2021,07,01,09,55,14.00
2021,07,01,09,56,14.00
2021,07,01,09,57,14.10
2021,07,01,09,58,14.10
2021,07,01,09,59,14.10
2021,07,01,10,00,14.10
2021,07,01,10,01,14.10
2021,07,01,10,02,14.10
2021,07,01,10,03,14.10
2021,07,01,10,04,14.10
2021,07,01,10,05,14.10
2021,07,01,10,06,14.10
2021,07,01,10,07,14.10
2021,07,01,10,08,14.20
2021,07,01,10,09,14.20
2021,07,01,10,10,14.20
2021,07,01,10,11,14.20
2021,07,01,10,12,14.20
2021,07,01,10,13,14.20
2021,07,01,10,14,14.20
2021,07,01,10,15,14.20
2021,07,01,10,16,14.20
2021,07,01,10,17,14.30
2021,07,01,10,18,14.30
2021,07,01,10,19,14.30
2021,07,01,10,20,14.30
2021,07,01,10,21,14.30
2021,07,01,10,22,14.40
2021,07,01,10,23,14.50
2021,07,01,10,24,14.50
2021,07,01,10,25,14.60
2021,07,01,10,26,14.70
2021,07,01,10,27,14.80
2021,07,01,10,28,14.90
2021,07,01,10,29,14.90
2021,07,01,10,30,15.00
2021,07,01,10,31,15.00
2021,07,01,10,32,15.00
2021,07,01,10,33,15.10
2021,07,01,10,34,15.10
2021,07,01,10,35,15.10
2021,07,01,10,36,15.10
2021,07,01,10,37,15.10
2021,07,01,10,38,15.10
2021,07,01,10,39,15.10
2021,07,01,10,40,15.20
2021,07,01,10,41,15.20
2021,07,01,10,42,15.20
2021,07,01,10,43,15.20
2021,07,01,10,44,15.20
2021,07,01,10,45,15.20
2021,07,01,10,46,15.20
2021,07,01,10,47,15.20
2021,07,01,10,48,15.20
2021,07,01,10,49,15.20
2021,07,01,10,50,15.20
2021,07,01,10,51,15.20
2021,07,01,10,52,15.20
2021,07,01,10,53,15.20
2021,07,01,10,54,15.20
2021,07,01,10,55,15.20
2021,07,01,10,56,15.20
2021,07,01,10,57,15.10
2021,07,01,10,58,15.10
2021,07,01,10,59,15.10
2021,07,01,11,00,15.00
2021,07,01,11,01,15.00
2021,07,01,11,02,14.90
2021,07,01,11,03,14.90
2021,07,01,11,04,14.90
2021,07,01,11,05,14.80
2021,07,01,11,06,14.80
2021,07,01,11,07,14.80
2021,07,01,11,08,14.80
2021,07,01,11,09,14.80
2021,07,01,11,10,14.70
2021,07,01,11,11,14.80
2021,07,01,11,12,14.80
2021,07,01,11,13,14.80
2021,07,01,11,14,14.80
2021,07,01,11,15,14.80
2021,07,01,11,16,14.90
2021,07,01,11,17,14.90
2021,07,01,11,18,14.90
2021,07,01,11,19,15.00
2021,07,01,11,20,15.00
2021,07,01,11,21,15.00
2021,07,01,11,22,15.10
2021,07,01,11,23,15.10
2021,07,01,11,24,15.20
2021,07,01,11,25,15.20
2021,07,01,11,26,15.20
2021,07,01,11,27,15.30
2021,07,01,11,28,15.30
2021,07,01,11,29,15.30
2021,07,01,11,30,15.40
2021,07,01,11,31,15.40
2021,07,01,11,32,15.50
2021,07,01,11,33,15.60
2021,07,01,11,34,15.60
2021,07,01,11,35,15.60
2021,07,01,11,36,15.70
2021,07,01,11,37,15.70
2021,07,01,11,38,15.70
2021,07,01,11,39,15.70
2021,07,01,11,40,15.80
2021,07,01,11,41,15.80
2021,07,01,11,42,15.90
2021,07,01,11,43,15.90
2021,07,01,11,44,15.90
2021,07,01,11,45,16.00
2021,07,01,11,46,16.00
2021,07,01,11,47,16.00
2021,07,01,11,48,16.10
2021,07,01,11,49,16.10
2021,07,01,11,50,16.10
2021,07,01,11,51,16.20
2021,07,01,11,52,16.20
2021,07,01,11,53,16.20
2021,07,01,11,54,16.20
2021,07,01,11,55,16.30
2021,07,01,11,56,16.30
2021,07,01,11,57,16.30
2021,07,01,11,58,16.30
2021,07,01,11,59,16.30
2021,07,01,12,00,16.30
2021,07,01,12,01,16.30
2021,07,01,12,02,16.30
2021,07,01,12,03,16.30
2021,07,01,12,04,16.30
2021,07,01,12,05,16.30
2021,07,01,12,06,16.20
2021,07,01,12,07,16.20
2021,07,01,12,08,16.20
2021,07,01,12,09,16.10
2021,07,01,12,10,16.10
2021,07,01,12,11,16.00
2021,07,01,12,12,15.90
2021,07,01,12,13,15.90
2021,07,01,12,14,15.80
2021,07,01,12,15,15.70
2021,07,01,12,16,15.70
2021,07,01,12,17,15.70
2021,07,01,12,18,15.60
2021,07,01,12,19,15.60
2021,07,01,12,20,15.60
2021,07,01,12,21,15.60
2021,07,01,12,22,15.60
2021,07,01,12,23,15.60
2021,07,01,12,24,15.60
2021,07,01,12,25,15.60
2021,07,01,12,26,15.60
2021,07,01,12,27,15.70
2021,07,01,12,28,15.70
2021,07,01,12,29,15.80
2021,07,01,12,30,15.80
2021,07,01,12,31,15.90
2021,07,01,12,32,15.90
2021,07,01,12,33,15.90
2021,07,01,12,34,15.90
2021,07,01,12,35,16.00
2021,07,01,12,36,15.90
2021,07,01,12,37,16.00
2021,07,01,12,38,16.00
2021,07,01,12,39,16.00
2021,07,01,12,40,16.00
2021,07,01,12,41,16.00
2021,07,01,12,42,16.10
2021,07,01,12,43,16.10
2021,07,01,12,44,16.10
2021,07,01,12,45,16.10
2021,07,01,12,46,16.20
2021,07,01,12,47,16.20
2021,07,01,12,48,16.20
2021,07,01,12,49,16.20
2021,07,01,12,50,16.20
2021,07,01,12,51,16.20
2021,07,01,12,52,16.30
2021,07,01,12,53,16.30
2021,07,01,12,54,16.30
2021,07,01,12,55,16.30
2021,07,01,12,56,16.40
2021,07,01,12,57,16.40
2021,07,01,12,58,16.40
2021,07,01,12,59,16.40
2021,07,01,13,00,16.30
2021,07,01,13,01,16.30
2021,07,01,13,02,16.30
2021,07,01,13,03,16.20
2021,07,01,13,04,16.20
2021,07,01,13,05,16.10
2021,07,01,13,06,16.10
2021,07,01,13,07,16.00
2021,07,01,13,08,16.00
2021,07,01,13,09,16.00
2021,07,01,13,10,16.00
2021,07,01,13,11,16.10
2021,07,01,13,12,16.10
2021,07,01,13,13,16.10
2021,07,01,13,14,16.10
2021,07,01,13,15,16.00
2021,07,01,13,16,16.00
2021,07,01,13,17,16.00
2021,07,01,13,18,16.00
2021,07,01,13,19,16.00
2021,07,01,13,20,16.00
2021,07,01,13,21,16.10
2021,07,01,13,22,16.10
2021,07,01,13,23,16.10
2021,07,01,13,24,16.10
2021,07,01,13,25,16.10
2021,07,01,13,26,16.10
2021,07,01,13,27,16.10
2021,07,01,13,28,16.10
2021,07,01,13,29,16.10
2021,07,01,13,30,16.10
2021,07,01,13,31,16.10
2021,07,01,13,32,16.10
2021,07,01,13,33,16.00
2021,07,01,13,34,16.00
2021,07,01,13,35,15.90
2021,07,01,13,36,15.90
2021,07,01,13,37,15.90
2021,07,01,13,38,15.90
2021,07,01,13,39,15.90
2021,07,01,13,40,15.80
2021,07,01,13,41,15.80
2021,07,01,13,42,15.70
2021,07,01,13,43,15.70
2021,07,01,13,44,15.70
2021,07,01,13,45,15.70
2021,07,01,13,46,15.70
2021,07,01,13,47,15.70
2021,07,01,13,48,15.80
2021,07,01,13,49,15.80
2021,07,01,13,50,15.80
2021,07,01,13,51,15.90
2021,07,01,13,52,15.90
2021,07,01,13,53,15.90
2021,07,01,13,54,15.90
2021,07,01,13,55,15.90
2021,07,01,13,56,15.90
2021,07,01,13,57,15.90
2021,07,01,13,58,15.90
2021,07,01,13,59,15.90
2021,07,01,14,00,15.90
2021,07,01,14,01,15.90
2021,07,01,14,02,15.90
2021,07,01,14,03,15.90
2021,07,01,14,04,16.00
2021,07,01,14,05,16.00
2021,07,01,14,06,16.00
2021,07,01,14,07,16.00
2021,07,01,14,08,16.10
2021,07,01,14,09,16.10
2021,07,01,14,10,16.10
2021,07,01,14,11,16.10
2021,07,01,14,12,16.10
2021,07,01,14,13,16.10
2021,07,01,14,14,16.00
2021,07,01,14,15,16.00
2021,07,01,14,16,16.00
2021,07,01,14,17,15.90
2021,07,01,14,18,15.90
2021,07,01,14,19,15.90
2021,07,01,14,20,15.80
2021,07,01,14,21,15.80
2021,07,01,14,22,15.90
2021,07,01,14,23,15.90
2021,07,01,14,24,15.90
2021,07,01,14,25,15.90
2021,07,01,14,26,15.90
2021,07,01,14,27,15.80
2021,07,01,14,28,15.80
2021,07,01,14,29,15.70
2021,07,01,14,30,15.70
2021,07,01,14,31,15.60
2021,07,01,14,32,15.60
2021,07,01,14,33,15.60
2021,07,01,14,34,15.60
2021,07,01,14,35,15.60
2021,07,01,14,36,15.60
2021,07,01,14,37,15.60
2021,07,01,14,38,15.60
2021,07,01,14,39,15.60
2021,07,01,14,40,15.60
2021,07,01,14,41,15.60
2021,07,01,14,42,15.60
2021,07,01,14,43,15.60
2021,07,01,14,44,15.60
2021,07,01,14,45,15.60
2021,07,01,14,46,15.70
2021,07,01,14,47,15.80
2021,07,01,14,48,15.90
2021,07,01,14,49,15.90
2021,07,01,14,50,16.00
2021,07,01,14,51,16.10
2021,07,01,14,52,16.20
2021,07,01,14,53,16.20
2021,07,01,14,54,16.20
2021,07,01,14,55,16.20
2021,07,01,14,56,16.30
2021,07,01,14,57,16.30
2021,07,01,14,58,16.40
2021,07,01,14,59,16.40
2021,07,01,15,00,16.40
2021,07,01,15,01,16.40
2021,07,01,15,02,16.50
2021,07,01,15,03,16.50
2021,07,01,15,04,16.50
2021,07,01,15,05,16.50
2021,07,01,15,06,16.50
2021,07,01,15,07,16.50
2021,07,01,15,08,16.50
2021,07,01,15,09,16.60
2021,07,01,15,10,16.60
2021,07,01,15,11,16.70
2021,07,01,15,12,16.80
2021,07,01,15,13,17.00
2021,07,01,15,14,17.10
2021,07,01,15,15,17.10
2021,07,01,15,16,17.20
2021,07,01,15,17,17.20
2021,07,01,15,18,17.20
2021,07,01,15,19,17.20
2021,07,01,15,20,17.20
2021,07,01,15,21,17.20
2021,07,01,15,22,17.20
2021,07,01,15,23,17.20
2021,07,01,15,24,17.30
2021,07,01,15,25,17.40
2021,07,01,15,26,17.60
2021,07,01,15,27,17.70
2021,07,01,15,28,17.80
2021,07,01,15,29,17.90
2021,07,01,15,30,18.00
2021,07,01,15,31,18.10
2021,07,01,15,32,18.20
2021,07,01,15,33,18.20
2021,07,01,15,34,18.20
2021,07,01,15,35,18.30
2021,07,01,15,36,18.30
2021,07,01,15,37,18.30
2021,07,01,15,38,18.40
2021,07,01,15,39,18.40
2021,07,01,15,40,18.50
2021,07,01,15,41,18.50
2021,07,01,15,42,18.50
2021,07,01,15,43,18.50
2021,07,01,15,44,18.50
2021,07,01,15,45,18.40
2021,07,01,15,46,18.40
2021,07,01,15,47,18.30
2021,07,01,15,48,18.30
2021,07,01,15,49,18.20
2021,07,01,15,50,18.10
2021,07,01,15,51,18.10
2021,07,01,15,52,18.10
2021,07,01,15,53,18.10
2021,07,01,15,54,18.10
2021,07,01,15,55,18.10
2021,07,01,15,56,18.10
2021,07,01,15,57,18.10
2021,07,01,15,58,18.10
2021,07,01,15,59,18.10
2021,07,01,16,00,18.10
2021,07,01,16,01,18.10
2021,07,01,16,02,18.20
2021,07,01,16,03,18.30
2021,07,01,16,04,18.30
2021,07,01,16,05,18.40
2021,07,01,16,06,18.40
2021,07,01,16,07,18.50
2021,07,01,16,08,18.50
2021,07,01,16,09,18.50
2021,07,01,16,10,18.50
2021,07,01,16,11,18.50
2021,07,01,16,12,18.50
2021,07,01,16,13,18.50
2021,07,01,16,14,18.40
2021,07,01,16,15,18.40
2021,07,01,16,16,18.30
2021,07,01,16,17,18.30
2021,07,01,16,18,18.30
2021,07,01,16,19,18.30
2021,07,01,16,20,18.30
2021,07,01,16,21,18.30
2021,07,01,16,22,18.20
2021,07,01,16,23,18.20
2021,07,01,16,24,18.20
2021,07,01,16,25,18.20
2021,07,01,16,26,18.20
2021,07,01,16,27,18.20
2021,07,01,16,28,18.20
2021,07,01,16,29,18.20
2021,07,01,16,30,18.20
2021,07,01,16,31,18.20
2021,07,01,16,32,18.20
2021,07,01,16,33,18.30
2021,07,01,16,34,18.30
2021,07,01,16,35,18.30
2021,07,01,16,36,18.30
2021,07,01,16,37,18.40
2021,07,01,16,38,18.40
2021,07,01,16,39,18.40
2021,07,01,16,40,18.40
2021,07,01,16,41,18.50
2021,07,01,16,42,18.50
2021,07,01,16,43,18.40
2021,07,01,16,44,18.50
2021,07,01,16,45,18.50
2021,07,01,16,46,18.50
2021,07,01,16,47,18.50
2021,07,01,16,48,18.60
2021,07,01,16,49,18.60
2021,07,01,16,50,18.60
2021,07,01,16,51,18.60
2021,07,01,16,52,18.60
2021,07,01,16,53,18.70
2021,07,01,16,54,18.70
2021,07,01,16,55,18.70
2021,07,01,16,56,18.70
2021,07,01,16,57,18.70
2021,07,01,16,58,18.70
2021,07,01,16,59,18.70
2021,07,01,17,00,18.80
2021,07,01,17,01,18.80
2021,07,01,17,02,18.90
2021,07,01,17,03,18.80
2021,07,01,17,04,18.80
2021,07,01,17,05,18.80
2021,07,01,17,06,18.80
2021,07,01,17,07,18.80
2021,07,01,17,08,18.70
2021,07,01,17,09,18.70
2021,07,01,17,10,18.70
2021,07,01,17,11,18.70
2021,07,01,17,12,18.70
2021,07,01,17,13,18.70
2021,07,01,17,14,18.70
2021,07,01,17,15,18.70
2021,07,01,17,16,18.70
2021,07,01,17,17,18.70
2021,07,01,17,18,18.70
2021,07,01,17,19,18.70